Location: French Creek State Gamelands
(40.1750°N, 75.7969°W)
Time: 14:45:17
(UTC-04:00)

ISS - All Passes

Search period start: 06 May 2016 00:00
Search period end: 16 May 2016 00:00
Orbit: 402 x 405 km, 51.6° (Epoch: 06 May)

Date Brightness Start Highest point End Pass type
(mag) Time Alt. Az. Time Alt. Az. Time Alt. Az.
06 May - 06:17:12 10° SW 06:20:25 62° SE 06:23:39 10° ENE daylight
06 May - 07:54:32 10° WNW 07:57:07 21° NNW 07:59:42 10° NNE daylight
06 May - 09:33:26 10° NNW 09:34:32 11° N 09:35:39 10° NNE daylight
06 May - 11:09:50 10° NNW 11:12:03 17° NNE 11:14:16 10° ENE daylight
06 May - 12:45:41 10° NW 12:48:57 76° NE 12:52:12 10° ESE daylight
06 May - 14:24:01 10° WSW 14:24:58 11° SW 14:25:54 10° SW daylight
07 May - 05:25:05 10° SSW 05:27:59 30° SE 05:30:54 10° ENE visible
07 May - 07:01:27 10° W 07:04:25 31° NNW 07:07:23 10° NE daylight
07 May - 08:40:13 10° NW 08:41:39 12° N 08:43:06 10° NNE daylight
07 May - 10:17:31 10° NNW 10:19:13 13° NNE 10:20:55 10° NE daylight
07 May - 11:53:14 10° NW 11:56:21 41° NNE 11:59:28 10° ESE daylight
07 May - 13:30:05 10° W 13:32:38 21° SW 13:35:11 10° S daylight
08 May - 04:33:34 10° S 04:35:36 16° SE 04:37:40 10° E visible
08 May - 06:08:34 10° WSW 06:11:46 54° NW 06:14:59 10° NE daylight
08 May - 07:46:51 10° NW 07:48:47 15° NNW 07:50:44 10° NNE daylight
08 May - 09:25:06 10° NNW 09:26:21 12° N 09:27:35 10° NNE daylight
08 May - 11:00:52 10° NNW 11:03:40 26° NNE 11:06:28 10° E daylight
08 May - 12:37:08 10° WNW 12:40:14 42° SW 12:43:20 10° SSE daylight
09 May - 05:15:56 10° SW 05:19:12 78° SE 05:22:28 10° NE visible
09 May - 06:53:32 10° WNW 06:55:58 19° NNW 06:58:25 10° NNE daylight
09 May - 08:32:22 10° NNW 08:33:26 11° N 08:34:29 10° NNE daylight
09 May - 10:08:32 10° NNW 10:10:54 18° NNE 10:13:16 10° ENE daylight
09 May - 11:44:27 10° NW 11:47:44 87° SSW 11:50:58 10° SE daylight
10 May - 04:23:39 10° SSW 04:26:41 37° SE 04:29:44 10° ENE visible
10 May - 06:00:20 10° W 06:03:12 27° NNW 06:06:04 10° NE daylight
10 May - 07:39:12 10° NNW 07:40:30 12° N 07:41:49 10° NNE daylight
10 May - 09:16:11 10° NNW 09:18:03 14° NNE 09:19:55 10° NE daylight
10 May - 10:51:56 10° NW 10:55:08 49° NNE 10:58:18 10° ESE daylight
10 May - 12:29:04 10° W 12:31:19 17° SW 12:33:33 10° S daylight
11 May - 03:31:51 10° S 03:34:16 19° SE 03:36:41 10° E visible
11 May - 05:07:21 10° WSW 05:10:29 44° NNW 05:13:39 10° NE visible
11 May - 06:45:48 10° NW 06:47:36 14° NNW 06:49:23 10° NNE daylight
11 May - 08:23:47 10° NNW 08:25:09 12° N 08:26:32 10° NNE daylight
11 May - 09:59:31 10° NW 10:02:26 29° NNE 10:05:20 10° E daylight
11 May - 11:35:54 10° WNW 11:38:54 33° SW 11:41:52 10° SSE daylight
12 May - 04:14:36 10° SW 04:17:51 84° NW 04:21:08 10° NE visible
12 May - 05:52:25 10° WNW 05:54:43 17° NNW 05:57:01 10° NNE daylight
12 May - 07:31:08 10° NNW 07:32:12 11° N 07:33:17 10° NNE daylight
12 May - 09:07:07 10° NNW 09:09:38 20° NNE 09:12:10 10° ENE daylight
12 May - 10:43:07 10° WNW 10:46:23 70° SW 10:49:37 10° SE daylight
13 May - 03:22:09 10° SSW 03:25:17 47° SE 03:28:27 10° ENE visible
13 May - 04:59:09 10° W 05:01:53 24° NNW 05:04:38 10° NNE visible
13 May - 06:38:03 10° NNW 06:39:15 11° N 06:40:27 10° NNE daylight
13 May - 08:14:45 10° NNW 08:16:47 15° NNE 08:18:48 10° NE daylight
13 May - 09:50:31 10° NW 09:53:46 60° NE 09:56:59 10° ESE daylight
13 May - 11:28:04 10° W 11:29:52 14° SW 11:31:41 10° SSW daylight
14 May - 02:30:08 10° S 02:32:48 24° SE 02:35:29 10° ENE visible
14 May - 04:06:03 10° W 04:09:07 37° NNW 04:12:12 10° NE visible
14 May - 05:44:39 10° NW 05:46:17 13° N 05:47:55 10° NNE daylight
14 May - 07:22:20 10° NNW 07:23:51 13° N 07:25:22 10° NE daylight
14 May - 08:58:02 10° NW 09:01:04 34° NNE 09:04:04 10° E daylight
14 May - 10:34:37 10° WNW 10:37:26 27° SW 10:40:15 10° SSE daylight
15 May - 01:38:58 10° SSE 01:40:22 12° SE 01:41:47 10° ESE visible
15 May - 03:13:10 10° WSW 03:16:25 69° NW 03:19:41 10° NE visible
15 May - 04:51:13 10° WNW 04:53:21 16° NNW 04:55:30 10° NNE visible
15 May - 06:29:44 10° NNW 06:30:53 11° N 06:32:01 10° NNE daylight
15 May - 08:05:36 10° NNW 08:08:16 22° NNE 08:10:54 10° ENE daylight
15 May - 09:41:42 10° WNW 09:44:55 55° SW 09:48:06 10° SE daylight
